{"data":{"norad_id":57509,"epoch":"2026-09-20T07:49:09.246144Z","epoch_age_seconds":142994,"freshness":"FRESH","line1":"1 57509U 23113Q   26263.32580146  .00002178  00000+0  88654-4 0  9996","line2":"2 57509  43.0039 356.7503 0001579 255.5522 104.5155 15.27578468173447","mean_motion":15.27578468,"eccentricity":0.0001579,"inclination_deg":43.0039,"raan_deg":356.7503,"arg_perigee_deg":255.5522,"mean_anomaly_deg":104.5155,"bstar":8.8654e-5,"rev_number":17344,"period_min":94.266843253253,"perigee_km":481.97030139371,"apogee_km":484.13706541153,"semimajor_km":6861.1906834026,"source":"CELESTRAK","updated_at":"2026-09-21T09:00:33.634928Z"}}